Regional Weather Roundup
Issued by NWS

Home | Current Version | Previous Version | Graphics & Text | Print | Product List | Glossary On
Versions: 1 2 3 4 5 6 7 8 9 10 11 12 13 14 15 16 17 18 19 20 21 22 23 24 25 26 27 28 29 30 31 32 33 34 35 36 37 38 39 40 41 42 43 44 45 46 47 48 49 50
477
ASUS43 KFSD 241502
RWRSD

WEATHER ROUNDUP FOR SOUTH DAKOTA
NATIONAL WEATHER SERVICE SIOUX FALLS SD
1000 AM CDT FRI MAR 24 2017

NOTE: "FAIR" INDICATES FEW OR NO CLOUDS BELOW 12,000 FEET WITH NO
SIGNIFICANT WEATHER AND/OR OBSTRUCTIONS TO VISIBILITY.


SDZ001>005-009-010-012>017-241600-
NORTHWEST AND NORTH CENTRAL SOUTH DAKOTA

CITY           SKY/WX    TMP DP  RH WIND       PRES   REMARKS
BUFFALO          N/A     44  38  79 NW10      30.02R
FAITH            N/A     45  41  86 N7        30.08R
MOBRIDGE       SUNNY     40  31  70 NE7       30.07R
$$

SDZ012>016-024>037-041>051-057-063-072>074-241600-
SOUTHWEST AND SOUTH CENTRAL SOUTH DAKOTA

CITY           SKY/WX    TMP DP  RH WIND       PRES   REMARKS
RAPID CTY ARPT SUNNY     47  38  71 SW5       30.10R
PIERRE         MOSUNNY   40  34  79 NW3       30.09R
CUSTER         CLOUDY    43  28  55 N9G17     30.09R
ELLSWORTH AFB  SUNNY     49  38  66 NW13      30.09R
PHILIP         CLOUDY    43  40  89 W5        30.09R
PINE RIDGE     CLOUDY    42  39  89 NW7       30.10R
SPEARFISH      FAIR      46  36  66 W6        30.12R
WINNER         CLOUDY    43  36  76 N15       30.05R
$$

SDZ004>011-016>023-039-040-241600-
NORTHEAST SOUTH DAKOTA

CITY           SKY/WX    TMP DP  RH WIND       PRES   REMARKS
ABERDEEN       CLOUDY    35  31  85 N13       30.10R WCI  26
WATERTOWN      CLOUDY    35  34  96 N17       30.03R FOG     WCI  25
BROOKINGS      CLOUDY    36  34  92 N17G24    30.01R
SISSETON         N/A     35  35 100 N13       30.09R WCI  26
$$

SDZ017-020-022-023-036>040-048>070-241600-
SOUTHEAST SOUTH DAKOTA

CITY           SKY/WX    TMP DP  RH WIND       PRES   REMARKS
SIOUX FALLS    CLOUDY    39  36  89 N16G23    29.99R
HURON          CLOUDY    37  36  96 N17       30.06R
CHAMBERLAIN    CLOUDY    41  37  85 N9        30.06R
MITCHELL       CLOUDY    40  36  86 N15       30.06R
YANKTON        CLOUDY    39  36  87 N14       29.97S
$$

ABBREVIATIONS USED IN REMARKS
   TC - TEMPERATURE IN CELSIUS
  WCI - WIND CHILL INDEX
   HX - HEAT INDEX
  VSB - VISIBILITY





USA.gov is the U.S. government's official web portal to all federal, state and local government web resources and services.